Weather in Piatra Neamţ

Romania     46°56′05″N   26°22′45″E
temp.,
°C
wind,
m/s
gust,
m/s
humid.,
%
clouds,
%
prec.,
mm/h
press.,
hPa
HPBL,
m
13 may, thu
thu1300:00+9se389092 0.0 1011495
03:00+8sse489322 0.0 1009361
06:00+8se3690100 0.1 1007226
09:00+11sse4581100 0.1 1006376
12:00+15sse5571100 0.0 1005581
15:00+17se556463 0.5 10041125
18:00+16sse576941 0.6 1004694
21:00+11sse3691100 0.8 1004115
14 may, fri
fri1400:00+11sw119180 0.3 100515
03:00+10wsw2290100 0.3 100515
06:00+10w2288100 0.0 100421
09:00+11se0190100 0.8 100641
12:00+14ese2280100 0.7 1006344
15:00+17wsw366094 2.9 10061323
18:00+17wsw565634 0.6 10071046
21:00+12wsw3470100 0.7 100959
15 may, sat
sat1500:00+10wsw2272100 0.1 101015
03:00+10sw2275100 0.1 101121
06:00+10wsw2278100 0.0 101127
09:00+14nw126699 0.0 1012313
12:00+18ene3353100 0.0 10121437
15:00+18ene336142 1.3 10111179
18:00+19ese345813 0.8 10111255
21:00+13n11846 1.9 101110
16 may, sun
sun1600:00+11nw228951 0.5 101115
03:00+10w1189100 0.5 101111
06:00+10sw1190100 0.0 101110
09:00+15sse2374100 0.0 1011328
12:00+18sse4566100 0.8 1010786
15:00+19sse676097 1.6 10091327
18:00+14w468494 1.3 1009150
21:00+13wsw2287100 2.8 100813
17 may, mon
mon1700:00+12wsw1187100 0.9 100811
03:00+11wsw228754 0.9 100822
06:00+12wnw228695 0.0 100823
09:00+14n4684100 0.0 1010443
12:00+18n336610 0.9 10091050
15:00+20n225620 2.5 10091387
18:00+20ene115412 0.1 10081376
21:00+14ese117911 0.3 100911